COSMOS 675

Satellite information

Favourite Embed

Satellite Type and Status

PAYLOADIN ORBIT

Key statistics

Satellite COSMOS 675 at a glance.

Uptime

18688

Days in orbit

Revolutions

≈ 12.7

Per day

Orbit

LEO

Low Earth Orbit

Inclination

74.1

Latest

Satellite identification and parameters

Extended collection of information and parameters for COSMOS 675.

Object identification

Identified? True

Debris? False

Object name: COSMOS 675

International designator: 1974-069A

Object number (NORAD): 7424

Object ID (CCSDS): 7424

Country: COMMONWEALTH OF INDEPENDENT STATES (CIS)

Current information (Y/N): Y

RCS size: LARGE

Orbital parameters

Period: 113.638 minutes

Inclination: 74.0593 deg

SMA: 7771.576 km

Apoapsis: 1423.566 km

Periapsis: 1363.317 km

RAAN: 183.5891 deg

Eccentricy: 0.00387625

Argument of periapsis: 308.922 deg

Mean anomaly: 62.7773 deg

Mean motion: 12.67182302 rev/day

Mean motion (dot): 0.0 rev/day2

B* drag term: 0.00008567343 1/REarth

Two-line elements (TLE)

Creation date: Oct. 27, 2025, 2:46 a.m.

Reference frame: TEME

Reference center: EARTH

Epoch: Oct. 26, 2025, 11:39 p.m. UTC

TLE line 0: 0 COSMOS 675

TLE line 1: 1 07424U 74069A 25299.98552556 .00000000 00000-0 85673-4 0 9998

TLE line 2: 2 07424 74.0593 183.5891 0038762 308.9220 62.7773 12.67182302366652

Live tracking on map

Real-time ground track for satellite COSMOS 675.

In-orbit conjunctions

There are no conjunctions computed for COSMOS 675, at the moment. Check back to stay up to date, as we update our databases every day.

Go to all conjunctions

Associated space launch

The Sfera or Geoid series were the first soviet geodetic satellites to improve the accuracy of maps. The development of the satellites started in 1965 at NPO-PM.

COSMOS 675 was lifted into orbit during the mission ‘Kosmos-3M | Sfera 12’, on board a Kosmos-3M space rocket.

The launch took place on Aug. 29, 1974, 2:54 p.m. from 132/2.

For more information about the launch, click the button.

Launch to space Kosmos-3M | Sfera 12
Kosmos-3M | Sfera 12

Agency: N/A

Status: Launch Successful

Launch date: Aug. 29, 1974, 2:54 p.m. UTC

Rocket: Kosmos-3M

Launch pad: 132/2

Location: Plesetsk Cosmodrome, Russian Federation

...

Latest news about this satellite

There are no fresh news available about this satellite. Check back as we update our databases every day.


Newsletter sign-up

Weekly statistics, charts and insights to help you stay on top of the space industry.